Location: Observatory
(49.4490°N, 2.6360°W)
Time: 01:23:20
(UTC+01:00)

DIWATA 2B (PO-101) - Pass Details

Date: 25 April 2025
Orbit: 567 x 578 km, 98.1° (Epoch: 16 May)

Event Time Altitude Azimuth Distance (km) Brightness Sun altitude
Rises 05:17:37 0° 157° (SSE) 2,761 ? -6.9°
Reaches altitude 10° 05:19:46 10° 154° (SSE) 1,867 ? -6.6°
Maximum altitude 05:23:46 66° 73° (ENE) 625 ? -6.0°
Drops below altitude 10° 05:27:47 10° 351° (N) 1,878 ? -5.4°
Sets 05:29:57 0° 349° (N) 2,780 ? -5.1°
